Weather in Peny

Russia / Kursk Oblast     51°04′14″N   35°54′53″E
temp.,
°C
wind,
m/s
gust,
m/s
humid.,
%
clouds,
%
prec.,
mm/h
press.,
hPa
HPBL,
m
1 july, fri
fri100:00+15nne2277100 0.0 101715
03:00+14nnw22781 0.0 101719
06:00+15nnw35805 0.0 101799
09:00+20nnw57620 0.0 1016599
12:00+23n68494 0.0 10161637
15:00+24n694694 0.0 10152611
18:00+21nne69639 0.3 10161010
21:00+14ne410730 0.3 1019239
2 july, sat
sat200:00+11ne49740 0.0 1020163
03:00+8nne35810 0.0 102192
06:00+9n39810 0.0 1023275
09:00+15nne69590 0.0 1023860
12:00+19nne67510 0.0 10221306
15:00+21nne57490 0.0 10211636
18:00+21n46570 0.0 10211555
21:00+15nnw36820 0.0 102191
3 july, sun
sun300:00+13nnw33810 0.0 102127
03:00+12nw34860 0.0 102165
06:00+13nw388348 0.0 1020167
09:00+19nnw5761100 0.0 1020449
12:00+24nnw675121 0.0 10191079
15:00+25nw675250 0.0 10181257
18:00+24nw586298 0.0 10171196
21:00+19nw4884100 0.2 1018144
4 july, mon
mon400:00+17nw379197 0.0 1017137
03:00+16nw379435 0.1 1018126
06:00+17nw379046 0.0 1018171
09:00+23nnw45695 0.0 1018533
12:00+27n44560 0.0 10171369
15:00+28nnw345247 0.4 10172098
18:00+23n2269100 0.3 101731
21:00+21sse2276100 0.9 101816
5 july, tue
tue500:00+18ene11836 0.0 101811
03:00+17sse33905 0.0 101930
06:00+17sse35905 0.0 1019114
09:00+23ssw34695 0.0 1019472
12:00+26sw336291 1.3 1018908
15:00+28ssw234825 3.2 10182242
18:00+26se236382 0.0 101740
21:00+23sse3767100 0.0 1017165